This demonstration page uses our WeatherBlox Daily Observations layout. Learn more.

Left ArrowRight Arrow

Hourly Observations for March 5, 2019

Temp ( °F °C ) Dew Point ( °F °C ) Humidity (%) Winds ( mph kmh ) Pressure ( in mb ) Visibility ( mi km ) Precip ( " mm )
12:57 am 00:57 Clear 3 -16.1 -4 -20 72 72 WNW 8 13 30.40 1029 10 16 0.00 0.00
1:57 am 01:57 Clear 5 -15 -3 -19.4 69 69 W 9 15 30.40 1030 10 16 0.00 0.00
2:57 am 02:57 Clear 6 -14.4 -2 -18.9 69 69 WNW 12 19 30.40 1029 10 16 0.00 0.00
3:57 am 03:57 Clear 5 -15 -4 -20 66 66 WNW 13 20 30.39 1029 10 16 0.00 0.00
4:57 am 04:57 Clear 5 -15 -5 -20.6 63 63 NW 13 20 30.41 1030 10 16 0.00 0.00
5:57 am 05:57 Clear 2 -16.7 -7 -21.7 65 65 NW 12 19 30.45 1031 10 16 0.00 0.00
6:57 am 06:57 Clear 3 -16.1 -7 -21.7 62 62 WNW 10 17 30.48 1032 10 16 0.00 0.00
7:57 am 07:57 Sunny 3 -16.1 -7 -21.7 62 62 WNW 10 17 30.50 1033 10 16 0.00 0.00
8:57 am 08:57 Sunny 7 -13.9 -4 -20 60 60 WNW 10 17 30.52 1033 10 16 0.00 0.00
9:57 am 09:57 Sunny 14 -10 1 -17.2 56 56 NW 13 20 30.52 1034 10 16 0.00 0.00
10:57 am 10:57 Windy with Snow Likely 16 -8.9 4 -15.6 59 59 NNW 20 31 30.53 1034 9 14 0.00 0.03
12:57 pm 12:57 Sunny 19 -7.2 6 -14.4 57 57 NNW 15 24 30.55 1035 10 16 0.00 0.00
1:57 pm 13:57 Sunny 21 -6.1 7 -13.9 54 54 NW 10 17 30.53 1034 10 16 0.00 0.00
2:57 pm 14:57 Sunny 22 -5.6 7 -13.9 52 52 NNW 9 15 30.51 1033 10 16 0.00 0.00
3:57 pm 15:57 Sunny 22 -5.6 8 -13.3 55 55 WNW 9 15 30.52 1034 10 16 0.00 0.00
4:57 pm 16:57 Sunny 22 -5.6 9 -12.8 57 57 W 8 13 30.51 1033 10 16 0.00 0.00
5:57 pm 17:57 Sunny 21 -6.1 8 -13.3 57 57 W 6 9 30.49 1033 10 16 0.00 0.00
6:57 pm 18:57 Clear 16 -8.9 7 -13.9 67 67 SW 7 11 30.49 1033 10 16 0.00 0.00
7:57 pm 19:57 Clear 16 -8.9 7 -13.9 67 67 WSW 8 13 30.49 1032 10 16 0.00 0.00
8:57 pm 20:57 Clear 15 -9.4 6 -14.4 67 67 WSW 8 13 30.48 1032 10 16 0.00 0.00
9:57 pm 21:57 Clear 14 -10 5 -15 67 67 WSW 5 7 30.47 1032 10 16 0.00 0.00
10:57 pm 22:57 Clear 15 -9.4 5 -15 64 64 W 6 9 30.46 1032 10 16 0.00 0.00
11:57 pm 23:57 Clear 10 -12.2 3 -16.1 73 73 WNW 3 6 30.44 1031 10 16 0.00 0.00

Powered by AerisWeather